TimeMST,TemperatureF,Dew PointF,Humidity,Sea Level PressureIn,VisibilityMPH,Wind Direction,Wind SpeedMPH,Gust SpeedMPH,PrecipitationIn,Events,Conditions,WindDirDegrees,DateUTC
12:53 AM,5.0,1.0,84,30.43,6.0,Calm,Calm,-,N/A,,Partly Cloudy,0,2013-01-07 07:53:00
1:09 AM,6.8,1.4,79,30.30,6.0,Calm,Calm,-,N/A,,Haze,0,2013-01-07 08:09:00
1:53 AM,10.9,7.0,84,30.40,6.0,Calm,Calm,-,N/A,,Overcast,0,2013-01-07 08:53:00
2:53 AM,14.0,10.0,84,30.38,5.0,Calm,Calm,-,N/A,,Overcast,0,2013-01-07 09:53:00
3:53 AM,16.0,10.9,81,30.38,4.0,Calm,Calm,-,N/A,,Haze,0,2013-01-07 10:53:00
4:53 AM,17.1,12.9,84,30.38,4.0,Calm,Calm,-,N/A,,Overcast,0,2013-01-07 11:53:00
5:53 AM,18.0,14.0,84,30.39,4.0,Calm,Calm,-,N/A,,Overcast,0,2013-01-07 12:53:00
6:53 AM,18.0,14.0,84,30.38,4.0,Calm,Calm,-,N/A,,Overcast,0,2013-01-07 13:53:00
7:05 AM,17.6,14.0,86,30.27,2.0,ESE,3.5,-,0.00,Snow,Light Snow,120,2013-01-07 14:05:00
7:13 AM,17.6,14.0,86,30.27,1.5,Calm,Calm,-,0.00,Snow,Light Snow,0,2013-01-07 14:13:00
7:35 AM,17.6,14.0,86,30.28,2.0,Calm,Calm,-,0.00,Snow,Light Snow,0,2013-01-07 14:35:00
7:51 AM,17.6,14.0,86,30.29,1.8,Calm,Calm,-,0.00,Snow,Light Snow,0,2013-01-07 14:51:00
7:53 AM,18.0,14.0,84,30.40,1.5,Calm,Calm,-,0.00,Snow,Light Snow,0,2013-01-07 14:53:00
8:17 AM,17.6,14.0,86,30.27,1.0,Calm,Calm,-,0.01,Snow,Light Snow,0,2013-01-07 15:17:00
8:25 AM,17.6,14.0,86,30.27,0.8,SE,4.6,-,0.01,Snow,Light Snow,140,2013-01-07 15:25:00
8:53 AM,18.0,14.0,84,30.39,0.5,SSE,4.6,-,0.03,Fog-Snow,Snow,160,2013-01-07 15:53:00
9:53 AM,18.0,14.0,84,30.40,0.5,Calm,Calm,-,0.02,Fog-Snow,Light Snow,0,2013-01-07 16:53:00
10:53 AM,19.0,15.1,85,30.41,0.2,Calm,Calm,-,0.03,Fog-Snow,Light Snow,0,2013-01-07 17:53:00
12:50 PM,21.2,17.6,86,30.25,0.5,Calm,Calm,-,0.05,Fog-Snow,Snow,0,2013-01-07 19:50:00
12:53 PM,21.0,17.1,85,30.38,0.5,Calm,Calm,-,0.06,Fog-Snow,Light Snow,0,2013-01-07 19:53:00
1:20 PM,21.2,17.6,86,30.24,1.2,NE,4.6,-,0.00,Snow,Light Snow,40,2013-01-07 20:20:00
1:33 PM,21.2,17.6,86,30.24,1.2,NNE,6.9,-,0.00,Snow,Light Snow,20,2013-01-07 20:33:00
1:36 PM,21.2,17.6,86,30.24,1.0,North,3.5,-,0.00,Snow,Light Snow,10,2013-01-07 20:36:00
1:45 PM,21.2,17.6,86,30.24,0.8,NNE,3.5,-,0.01,Snow,Light Snow,20,2013-01-07 20:45:00
1:53 PM,21.9,17.1,82,30.35,1.0,NNE,5.8,-,0.01,Snow,Light Snow,20,2013-01-07 20:53:00
1:59 PM,21.2,17.6,86,30.24,0.8,NE,3.5,-,0.00,Snow,Light Snow,50,2013-01-07 20:59:00
2:13 PM,21.2,17.6,86,30.24,1.0,NNE,3.5,-,0.00,Snow,Light Snow,30,2013-01-07 21:13:00
2:26 PM,21.2,17.6,86,30.24,0.8,NNE,3.5,-,0.00,Snow,Light Snow,20,2013-01-07 21:26:00
2:50 PM,23.0,17.6,80,30.24,0.5,Calm,Calm,-,0.01,Snow,Snow,0,2013-01-07 21:50:00
2:53 PM,23.0,19.0,85,30.34,0.5,Calm,Calm,-,0.01,Fog-Snow,Light Snow,0,2013-01-07 21:53:00
3:14 PM,23.0,19.4,86,30.25,1.0,Calm,Calm,-,0.00,Snow,Light Snow,0,2013-01-07 22:14:00
3:21 PM,23.0,19.4,86,30.25,1.2,Calm,Calm,-,0.00,,Overcast,0,2013-01-07 22:21:00
3:34 PM,23.0,17.6,80,30.25,1.0,Calm,Calm,-,0.00,Snow,Light Snow,0,2013-01-07 22:34:00
3:44 PM,23.0,19.4,86,30.24,0.8,Calm,Calm,-,0.01,Snow,Light Snow,0,2013-01-07 22:44:00
4:03 PM,23.0,19.4,86,30.25,0.8,Calm,Calm,-,0.01,Snow,Light Snow,0,2013-01-07 23:03:00
4:14 PM,23.0,19.4,86,30.26,1.0,Calm,Calm,-,0.01,Snow,Light Snow,0,2013-01-07 23:14:00
4:28 PM,23.0,19.4,86,30.26,1.5,Calm,Calm,-,0.01,Snow,Light Snow,0,2013-01-07 23:28:00
4:53 PM,23.0,19.0,85,30.36,2.5,Calm,Calm,-,0.01,,Overcast,0,2013-01-07 23:53:00
5:44 PM,23.0,19.4,86,30.26,4.0,Calm,Calm,-,N/A,,Overcast,0,2013-01-08 00:44:00
5:53 PM,23.0,19.0,85,30.36,4.0,Calm,Calm,-,N/A,,Overcast,0,2013-01-08 00:53:00
6:53 PM,21.9,18.0,85,30.37,4.0,West,4.6,-,N/A,,Overcast,260,2013-01-08 01:53:00
7:53 PM,21.9,18.0,85,30.35,4.0,SW,5.8,-,N/A,,Overcast,220,2013-01-08 02:53:00
8:53 PM,21.9,18.0,85,30.35,4.0,WSW,3.5,-,N/A,,Overcast,240,2013-01-08 03:53:00
9:53 PM,21.9,18.0,85,30.36,4.0,WSW,5.8,-,N/A,,Overcast,250,2013-01-08 04:53:00
10:53 PM,19.9,16.0,85,30.35,4.0,WSW,3.5,-,N/A,,Overcast,240,2013-01-08 05:53:00
11:53 PM,21.0,16.0,81,30.35,4.0,West,4.6,-,N/A,,Haze,260,2013-01-08 06:53:00